Temp
15 15 15 15 15 15 15 15 15 14 15 15 14 15 15 15 15 15 15 15 15 16 16 15 16 17 17 18 18 17 17 18 19 17 16 17 17 16 15 15 16 16 16
16 15 15 14 15 15 14 15 15 15 14 14 14 14 14 14 14 14 14 14 14 15 15 15 16 16 16 17 17 17 17 17 17 17 17 15 16 16 15 15 14 16 16
15 15 15 15 14 14 15 15 15 15 15 14 14 14 15 14 13 13 14 14 14 14 15 15 15 15 15 16 16 16 16 16 16 16 15 15 15 15 15 14 14 15 15
16 15 15 15 15 15 14 14 15 14 14 14 14 14 14 14 14 14 14 13 13 13 14 14 14 14 14 15 16 16 16 16 16 15 15 14 14 14 13 14 13 13 12
16 17 16 15 15 15 15 14 14 14 14 14 14 13 13 13 13 13 13 13 13 13 12 12 13 13 14 14 15 15 14 15 14 15 15 14 13 13 13 13 14 13 13
16 17 16 15 15 15 14 14 14 13 13 14 13 13 13 13 13 13 13 12 13 12 12 12 13 13 13 14 14 14 15 14 14 14 14 13 13 13 13 12 13 13 13
16 17 16 15 15 15 15 15 15 14 14 13 14 13 13 13 12 12 12 12 12 12 12 12 13 13 12 12 13 14 14 14 14 14 13 12 12 12 11 11 12 11 11
16 17 16 16 15 16 16 14 14 14 13 13 13 14 14 14 13 13 12 12 11 11 10 11 12 12 11 10 12 13 14 14 14 13 13 13 13 13 12 11 11 10 10
15 16 16 15 15 14 14 14 13 13 13 12 12 14 14 13 13 12 11 10 12 12 12 12 11 11 11 10 10 12 12 12 12 12 12 12 11 11 10 10 9 8 9
15 16 15 14 15 14 14 13 13 12 11 10 11 11 13 12 11 11 10 9 10 11 11 10 10 10 10 10 9 9 9 8 9 10 10 10 9 9 8 8 8 7 8
15 15 15 15 15 14 13 12 12 11 11 11 10 10 11 10 10 9 9 9 8 9 10 9 9 8 9 9 8 8 8 8 7 7 7 6 6 6 6 6 6 6 6
13 14 14 14 13 13 12 12 11 11 10 10 10 8 8 7 7 7 7 8 8 9 8 8 8 8 8 8 7 7 6 6 6 6 7 7 6 6 5 4 5 5 4
13 13 13 12 12 12 11 10 10 8 8 7 7 7 7 7 8 7 7 7 7 7 7 7 7 6 6 6 5 5 5 6 6 7 7 6 5 4 4 4 4 4 4
11 11 10 9 9 8 7 7 7 7 6 6 6 6 6 6 6 7 7 6 6 5 5 5 5 5 4 4 5 4 4 4 4 4 4 4 4 4 4 4 4 4 4
9 8 8 7 7 7 6 6 7 6 6 6 6 6 6 7 6 6 6 4 4 5 4 4 3 3 3 3 3 2 2 3 3 3 3 3 4 3 4 3 4 4 4
8 7 7 6 6 6 6 6 6 5 6 6 5 5 5 6 6 5 5 5 5 4 4 4 4 4 4 3 4 4 3 2 2 3 3 3 3 3 2 3 3 3 3
6 7 7 7 7 7 6 5 4 4 4 5 5 5 5 5 4 4 4 4 4 4 4 4 3 3 3 2 2 3 3 2 2 2 2 2 2 2 2 3 3 3 3
7 7 7 7 7 9 8 7 7 6 5 3 4 4 4 4 4 4 4 4 4 5 5 4 4 3 3 3 3 3 2 2 2 2 2 2 2 2 2 2 2 2 2
9 10 10 10 10 9 9 9 8 8 6 5 3 3 4 3 3 3 4 5 5 5 5 4 3 3 3 3 2 2 1 1 1 1 2 1 1 1 1 2 2 1 1
10 10 10 9 9 10 10 10 9 8 8 7 7 6 5 5 5 5 5 5 5 5 5 4 4 3 2 1 1 1 2 2 1 1 1 1 1 1 1 1 1 1 2
10 9 9 10 10 9 9 9 8 8 8 7 6 4 5 5 6 5 5 5 4 4 4 3 3 3 3 2 1 1 2 2 1 1 0 0 0 0 0 1 1 1 1
10 10 11 9 8 8 8 7 6 6 7 6 5 4 4 5 6 5 4 4 3 3 3 2 2 3 2 1 1 1 1 1 0 -0 -0 -0 -0 0 0 -0 0 1 1
11 11 10 9 8 7 7 6 6 7 7 6 6 6 5 5 5 4 3 3 3 2 2 2 2 2 2 1 1 1 1 1 -0 -1 -1 -1 -1 -0 -1 -0 0 0 0
10 10 10 10 8 8 7 7 7 7 7 7 6 6 5 4 4 3 3 2 2 2 2 2 2 2 1 1 1 0 -0 -0 -2 -2 -2 -2 -1 -1 -1 -1 -0 -0 -0
11 10 10 10 9 8 8 8 8 7 6 6 6 5 5 4 3 3 3 2 2 3 2 2 2 1 0 0 -0 -0 -1 -1 -1 -1 -2 -3 -2 -2 -1 -1 -1 -1 -0
10 9 9 9 9 9 8 8 7 7 7 6 6 5 4 4 4 3 2 2 3 3 2 1 1 -0 -0 -0 -1 -1 -1 -1 -1 -1 -1 -2 -2 -1 -1 -2 -1 -1 -0
Height
1504 1504 1503 1501 1498 1498 1498 1498 1498 1498 1499 1500 1501 1502 1505 1508 1512 1516 1521 1525 1528 1531 1535 1537 1539 1540 1542 1544 1544 1545 1546 1547 1546 1546 1546 1546 1547 1551 1551 1552 1553 1555 1557
1505 1505 1505 1503 1502 1502 1502 1503 1502 1501 1503 1504 1505 1506 1507 1509 1513 1516 1519 1522 1526 1529 1533 1534 1536 1539 1540 1541 1541 1543 1544 1544 1544 1544 1544 1545 1545 1548 1550 1551 1553 1554 1555
1506 1506 1506 1505 1505 1504 1505 1504 1504 1504 1504 1506 1507 1509 1509 1510 1513 1515 1518 1519 1523 1527 1530 1532 1534 1536 1538 1538 1540 1540 1541 1542 1542 1542 1543 1545 1544 1545 1548 1549 1551 1552 1553
1506 1506 1507 1506 1506 1506 1506 1506 1506 1506 1506 1507 1508 1510 1511 1512 1515 1517 1518 1521 1524 1526 1529 1531 1534 1536 1537 1537 1537 1539 1538 1538 1539 1540 1541 1544 1544 1545 1548 1549 1551 1553 1553
1506 1506 1508 1508 1508 1507 1508 1507 1507 1507 1508 1509 1510 1511 1512 1514 1515 1517 1519 1522 1523 1525 1528 1531 1533 1534 1535 1536 1537 1538 1538 1537 1537 1538 1540 1541 1543 1545 1547 1547 1550 1551 1550
1505 1507 1508 1509 1509 1508 1509 1509 1510 1510 1511 1511 1512 1513 1514 1516 1518 1520 1521 1521 1523 1525 1528 1530 1532 1533 1534 1535 1536 1536 1536 1537 1536 1538 1539 1540 1541 1543 1543 1545 1547 1548 1550
1503 1506 1507 1509 1509 1510 1510 1511 1513 1514 1513 1514 1514 1515 1515 1517 1518 1521 1523 1524 1525 1527 1530 1531 1532 1533 1534 1535 1535 1534 1534 1535 1536 1536 1538 1539 1539 1540 1541 1543 1543 1543 1545
1500 1503 1505 1508 1509 1510 1512 1511 1512 1514 1514 1513 1514 1515 1516 1517 1520 1522 1524 1525 1526 1528 1530 1531 1530 1531 1533 1535 1535 1534 1534 1535 1535 1534 1535 1536 1537 1538 1538 1540 1541 1542 1542
1496 1500 1503 1505 1506 1507 1508 1510 1511 1513 1514 1515 1515 1516 1517 1517 1519 1521 1524 1524 1524 1525 1528 1529 1530 1531 1533 1534 1534 1534 1534 1534 1534 1535 1535 1536 1537 1538 1538 1539 1539 1539 1540
1494 1496 1500 1501 1503 1506 1508 1509 1511 1511 1512 1514 1515 1516 1516 1518 1520 1522 1524 1525 1526 1526 1526 1528 1530 1532 1532 1533 1535 1535 1535 1535 1535 1535 1534 1534 1535 1535 1536 1534 1534 1536 1538
1488 1491 1495 1499 1503 1506 1507 1508 1509 1511 1512 1512 1514 1515 1516 1518 1520 1523 1524 1525 1525 1526 1527 1529 1529 1531 1532 1532 1534 1534 1534 1534 1537 1536 1535 1535 1534 1535 1535 1532 1532 1533 1535
1488 1492 1496 1499 1503 1506 1508 1508 1509 1511 1511 1511 1512 1516 1517 1520 1521 1522 1523 1524 1525 1527 1527 1528 1529 1531 1531 1532 1533 1534 1534 1536 1535 1536 1536 1536 1535 1535 1534 1531 1528 1528 1529
1489 1493 1496 1500 1504 1506 1507 1509 1510 1510 1513 1514 1516 1518 1520 1520 1522 1523 1524 1524 1525 1527 1527 1526 1527 1528 1528 1530 1531 1532 1534 1537 1537 1537 1536 1535 1533 1532 1529 1531 1529 1526 1525
1492 1495 1499 1502 1505 1509 1510 1514 1517 1516 1519 1520 1521 1521 1523 1523 1523 1523 1523 1524 1525 1527 1525 1526 1528 1529 1530 1532 1531 1531 1531 1532 1533 1534 1534 1533 1532 1531 1531 1529 1529 1527 1526
1499 1503 1506 1508 1511 1513 1516 1520 1519 1520 1523 1524 1524 1524 1526 1525 1525 1526 1527 1528 1529 1529 1530 1531 1532 1533 1534 1534 1534 1533 1533 1534 1533 1534 1533 1531 1530 1530 1529 1527 1527 1525 1524
1506 1510 1514 1516 1519 1521 1521 1522 1525 1526 1527 1528 1528 1528 1528 1528 1529 1530 1530 1530 1530 1532 1534 1533 1534 1535 1536 1536 1535 1535 1534 1534 1533 1533 1533 1531 1530 1529 1527 1526 1525 1524 1524
1513 1515 1519 1522 1524 1525 1527 1528 1528 1531 1531 1531 1531 1531 1532 1531 1532 1532 1532 1533 1535 1534 1536 1536 1536 1536 1537 1535 1536 1535 1534 1534 1532 1533 1532 1531 1530 1528 1526 1525 1523 1523 1523
1522 1524 1526 1529 1530 1531 1533 1534 1535 1536 1536 1535 1535 1535 1534 1534 1534 1535 1534 1534 1537 1537 1538 1538 1538 1538 1537 1537 1536 1535 1535 1534 1534 1533 1531 1530 1528 1526 1524 1523 1523 1523 1522
1527 1530 1531 1532 1533 1534 1535 1537 1537 1538 1539 1538 1536 1536 1537 1536 1536 1537 1537 1537 1539 1539 1539 1538 1538 1537 1537 1536 1535 1535 1533 1533 1531 1531 1530 1528 1526 1525 1524 1523 1521 1520 1520
1531 1532 1533 1534 1535 1536 1537 1538 1539 1540 1540 1540 1540 1540 1538 1537 1537 1539 1540 1540 1540 1539 1539 1538 1537 1537 1536 1535 1534 1533 1533 1532 1531 1530 1529 1527 1526 1524 1523 1522 1521 1520 1518
1533 1535 1533 1535 1536 1538 1539 1540 1540 1540 1540 1540 1540 1538 1539 1539 1541 1541 1541 1540 1539 1539 1538 1537 1537 1536 1536 1535 1534 1533 1532 1531 1530 1529 1527 1526 1524 1523 1522 1521 1519 1518 1517
1533 1534 1534 1535 1536 1537 1539 1540 1539 1541 1541 1541 1540 1538 1538 1539 1541 1541 1540 1540 1539 1538 1537 1536 1536 1536 1535 1534 1533 1532 1532 1531 1529 1527 1526 1525 1524 1522 1521 1520 1518 1517 1516
1533 1533 1534 1535 1535 1537 1538 1538 1539 1539 1539 1540 1540 1540 1541 1541 1541 1540 1540 1539 1538 1538 1537 1536 1535 1535 1534 1533 1532 1532 1531 1530 1528 1526 1525 1523 1523 1522 1520 1519 1517 1516 1515
1532 1533 1533 1533 1533 1534 1535 1537 1537 1538 1538 1539 1539 1540 1540 1540 1540 1539 1539 1539 1538 1537 1536 1536 1535 1534 1533 1532 1531 1530 1528 1527 1525 1525 1522 1521 1521 1521 1519 1517 1516 1515 1513
1530 1531 1531 1531 1532 1533 1534 1535 1536 1537 1537 1538 1538 1539 1539 1538 1538 1538 1538 1538 1537 1537 1536 1535 1534 1532 1531 1529 1528 1527 1525 1524 1523 1521 1519 1519 1519 1518 1518 1516 1515 1513 1511
1529 1529 1530 1529 1530 1531 1532 1533 1534 1535 1535 1535 1536 1536 1536 1536 1537 1537 1536 1536 1536 1536 1535 1533 1532 1530 1529 1527 1525 1524 1523 1522 1520 1519 1517 1516 1518 1518 1516 1514 1513 1511 1510
Wind_Speed
4 3 3 4 9 9 9 10 10 11 8 9 11 13 15 18 18 19 20 19 15 14 13 10 11 11 7 7 9 8 8 9 9 10 5 9 11 11 9 11 12 9 9
3 1 1 4 8 10 6 8 8 8 8 7 8 9 10 12 15 19 20 15 14 13 14 11 7 7 10 11 9 7 7 8 8 8 6 7 10 15 12 10 6 11 11
2 2 2 6 4 1 2 2 0 4 6 8 9 9 9 9 14 14 18 17 17 16 13 12 9 6 8 7 8 8 6 6 4 7 9 4 5 9 12 12 14 7 9
5 3 1 5 4 2 2 3 1 4 8 11 12 10 8 8 10 12 13 15 17 17 16 14 9 6 6 6 6 9 10 10 9 9 8 12 8 7 6 5 4 5 4
4 4 4 3 4 6 5 4 4 6 7 8 9 8 6 8 9 10 11 13 15 15 11 8 10 9 6 6 7 7 7 8 6 11 10 9 7 7 6 8 6 6 10
7 7 7 6 6 7 8 8 7 8 7 7 8 8 9 9 9 6 4 6 9 8 9 10 9 10 8 10 12 12 8 6 5 8 11 12 13 9 7 4 4 4 8
9 10 10 9 8 8 7 7 7 7 8 6 7 9 8 8 7 6 5 7 8 10 10 8 8 10 6 7 7 8 9 9 8 11 12 9 9 9 6 2 6 4 5
13 13 13 11 10 10 9 9 8 8 8 7 7 7 8 8 9 8 9 6 7 9 9 11 14 12 10 6 4 6 6 6 8 9 11 10 8 6 6 4 5 6 7
18 17 15 14 12 12 11 9 10 11 8 8 6 5 7 11 10 11 11 12 13 11 12 9 9 9 9 9 6 2 2 3 3 3 4 4 4 6 7 3 4 6 7
19 21 18 18 18 14 14 13 12 12 12 9 6 6 9 12 10 11 10 8 9 10 11 11 10 9 8 5 4 2 3 3 1 3 5 7 10 10 11 9 7 6 9
22 24 23 19 14 13 13 14 14 14 13 11 10 9 9 12 11 10 13 11 9 10 11 10 9 6 4 3 2 1 4 3 5 6 5 3 6 6 7 12 9 7 7
20 19 16 12 9 7 7 12 13 13 14 12 10 12 12 10 11 10 9 9 9 8 9 8 4 1 5 7 6 4 3 5 8 7 5 5 5 5 7 8 12 7 7
19 16 15 12 12 12 9 8 9 13 12 13 10 8 10 9 5 3 3 3 2 4 3 5 5 4 5 4 2 3 4 4 5 6 6 6 7 8 10 8 8 11 13
21 22 23 21 20 19 18 17 17 16 14 14 12 11 8 7 7 6 3 2 2 3 6 7 5 4 2 2 5 5 5 8 5 3 4 5 6 6 5 6 6 6 6
24 23 25 25 24 25 25 22 19 19 15 13 13 13 11 9 10 8 6 5 4 5 8 6 7 7 6 5 6 6 5 3 2 4 4 4 4 5 5 5 5 6 5
29 27 27 28 27 25 24 24 21 18 15 14 13 11 11 11 10 9 8 8 8 10 7 6 6 5 4 4 4 4 5 5 4 4 4 5 5 6 7 5 6 6 6
24 24 25 26 24 21 19 19 22 20 18 17 15 14 12 11 11 11 13 17 12 12 6 5 4 4 4 5 5 5 6 7 7 5 5 6 6 7 7 6 6 7 7
21 21 18 14 13 13 11 11 11 9 8 11 13 13 12 11 10 13 15 12 6 8 6 4 4 3 3 4 4 5 5 5 4 5 6 7 7 7 7 6 6 7 7
15 11 10 10 10 10 9 8 7 6 5 3 3 9 14 14 15 15 12 9 4 4 4 4 4 4 4 4 4 5 5 5 5 5 7 8 8 7 7 7 7 8 9
9 11 9 7 8 7 6 5 3 3 3 3 3 3 3 9 6 6 5 5 4 5 5 5 6 5 5 6 5 5 4 5 6 7 7 8 8 8 8 8 7 7 7
8 7 3 3 7 3 1 1 1 2 2 1 1 3 4 5 2 3 4 5 6 6 6 6 5 6 5 6 6 5 5 5 6 7 8 8 8 8 8 8 7 7 7
5 3 2 6 4 6 4 3 3 2 4 2 0 4 6 6 2 3 5 5 5 6 5 5 4 5 6 5 5 5 4 6 7 8 8 9 9 9 9 8 7 7 8
3 2 3 3 5 5 3 5 3 3 2 2 1 0 1 2 3 3 4 5 5 5 5 5 5 5 5 6 6 7 7 7 6 9 9 8 8 9 9 8 8 8 8
5 5 6 6 6 6 7 5 6 5 3 4 4 3 3 3 3 4 3 4 4 4 5 6 6 7 7 7 7 8 6 5 5 12 11 7 7 9 8 7 8 9 9
6 6 6 7 4 6 6 6 5 4 5 5 5 5 4 4 4 4 5 3 3 4 5 6 6 7 7 8 7 10 14 15 18 14 9 6 6 8 8 8 9 8 9
6 7 7 6 6 6 6 7 6 6 6 6 6 6 6 6 6 5 4 3 3 4 3 3 7 8 6 3 7 9 11 10 8 8 8 3 5 7 8 9 9 9 9
Wind_Direction
266 312 25 45 84 80 75 84 86 91 118 124 115 145 171 180 187 187 191 185 174 175 177 206 221 214 226 248 241 240 248 240 248 156 195 196 174 162 183 202 206 216 204
274 222 128 135 93 82 76 105 96 97 109 114 120 119 137 175 191 183 178 178 179 179 192 192 200 238 244 241 226 221 231 225 224 217 214 151 185 190 186 192 161 204 212
228 262 240 186 191 307 78 159 112 131 121 135 137 128 132 150 164 172 183 183 184 187 191 189 208 244 225 217 193 194 213 224 243 254 204 175 205 187 182 180 197 217 199
215 182 182 173 176 157 201 183 249 153 138 154 143 131 125 134 157 186 192 194 198 198 199 202 206 254 252 234 203 229 240 235 236 225 213 181 176 164 165 172 186 156 202
234 166 196 168 146 144 129 121 114 128 150 153 164 171 168 168 177 189 192 197 205 205 195 211 223 228 225 221 220 237 253 227 219 223 201 177 172 164 170 190 177 188 232
209 205 193 177 158 162 138 128 104 109 118 119 141 147 138 144 154 157 168 190 198 202 212 223 220 208 218 229 250 255 241 223 191 195 189 177 182 187 213 173 186 220 213
220 202 198 188 175 166 146 140 132 122 121 118 126 129 147 152 157 153 147 178 205 201 199 216 237 235 222 178 166 187 190 186 186 151 152 164 189 186 210 157 222 208 209
215 204 200 193 190 178 176 178 158 146 140 146 145 139 143 149 157 167 175 171 159 155 158 174 191 182 166 147 184 193 187 193 188 195 201 207 220 222 218 231 281 310 311
209 201 197 199 195 177 172 182 178 178 177 171 188 162 160 162 162 157 141 148 179 184 176 194 170 169 167 162 176 195 206 204 213 219 206 207 230 269 278 284 215 302 300
200 198 194 197 212 210 196 182 174 186 185 186 162 148 168 164 158 167 133 137 153 163 164 165 164 171 179 180 138 115 90 93 237 284 290 299 305 304 297 290 286 311 302
187 187 194 203 221 214 205 200 189 188 192 189 183 161 155 158 158 164 162 149 151 167 167 168 166 163 172 196 175 280 300 286 283 295 332 349 341 348 329 317 317 311 302
181 180 188 202 219 203 203 186 183 194 191 175 161 142 136 142 137 130 133 139 135 152 146 139 138 276 293 297 299 304 316 332 355 346 351 337 329 322 304 300 303 308 297
162 165 145 135 129 110 115 131 142 140 137 121 122 115 116 114 115 143 143 138 182 235 248 268 271 321 333 354 8 22 38 356 304 307 306 303 311 312 331 337 319 324 338
132 131 127 122 119 112 109 108 108 102 104 105 107 106 104 105 110 108 102 42 24 54 57 44 44 32 16 333 304 283 298 280 252 299 299 303 317 318 311 312 316 314 316
118 117 119 118 118 116 110 104 99 96 92 92 89 87 78 81 76 65 69 85 86 79 58 51 44 38 39 37 11 27 6 23 5 329 322 317 326 321 321 329 324 327 322
111 111 111 110 109 106 104 99 90 85 85 81 79 68 75 71 70 69 73 72 85 91 81 70 61 55 48 40 32 13 5 2 341 350 334 332 332 328 317 335 322 325 320
115 118 118 113 106 99 94 95 97 93 86 81 72 62 58 59 65 76 83 79 72 69 69 59 55 51 40 33 25 10 357 337 23 347 330 327 326 322 329 324 325 325 317
117 116 116 114 106 107 102 99 92 87 82 80 63 58 59 61 75 85 77 65 45 49 45 46 34 19 359 353 347 338 326 327 313 316 326 324 325 326 331 325 323 316 318
113 115 115 116 122 115 112 107 97 87 79 91 74 55 56 62 67 66 59 53 42 26 20 11 9 359 343 324 322 327 334 318 333 341 330 329 329 328 322 320 317 313 326
133 133 130 124 120 117 116 114 77 65 58 56 60 28 3 13 31 40 29 27 16 2 350 348 341 340 339 333 338 331 333 332 329 330 327 330 329 329 323 320 317 313 315
120 132 190 157 144 145 185 203 254 327 350 12 1 272 226 100 27 15 4 351 345 335 326 319 326 321 341 335 331 343 335 330 328 331 331 331 329 326 322 319 317 312 312
159 150 176 185 215 200 211 217 246 251 297 262 206 34 92 69 344 338 336 335 334 337 328 333 331 317 317 313 333 333 340 329 327 332 332 328 326 326 320 315 315 312 311
187 215 214 177 169 171 254 230 206 283 224 184 178 209 355 279 303 319 331 329 331 334 333 342 340 323 307 304 308 309 310 303 314 334 328 323 322 313 319 319 315 316 311
241 262 250 233 196 201 192 226 213 237 181 211 224 231 254 280 298 302 326 317 329 336 341 330 318 315 301 302 297 297 307 233 281 322 311 322 316 312 316 322 320 316 323
257 251 238 216 232 226 211 222 223 215 215 220 232 248 261 273 274 286 295 299 327 340 326 334 324 317 317 300 295 274 280 285 292 300 311 306 311 320 327 320 316 325 326
248 240 233 236 231 220 223 210 219 225 231 235 240 249 255 256 257 270 270 262 301 315 322 354 345 349 4 312 285 277 282 296 311 326 324 336 330 317 314 321 325 331 328